Regional Weather Roundup
Issued by NWS

Home | Current Version | Previous Version | Text Only | Print | Product List | Glossary On
Versions: 1 2 3 4 5 6 7 8 9 10 11 12 13 14 15 16 17 18 19 20 21 22 23 24 25 26 27 28 29 30 31 32 33 34 35 36 37 38 39 40 41 42 43 44 45 46 47 48 49 50
000
ASUS45 KCYS 291210
RWRWY

WYOMING REGIONAL WEATHER ROUNDUP
NATIONAL WEATHER SERVICE CHEYENNE WY
500 AM MST MON DEC 29 2014

NOTE:  "FAIR" INDICATES FEW OR NO CLOUDS BELOW 12,000 FEET
WITH NO SIGNIFICANT WEATHER AND/OR OBSTRUCTIONS TO VISIBILITY.

WYZ001-291300-
YELLOWSTONE NATIONAL PARK

CITY           SKY/WX    TMP DP  RH WIND       PRES   REMARKS
LK YELLOWSTONE   N/A      0  -5  79 CALM      29.98R
6HR MIN TEMP:  -1; 6HR MAX TEMP:   9; 6HR PCP:  0.01;

W YELLOWSTONE  NOT AVBL

$$
WYZ002>013-054>058-071-098>099-291300-
NORTHERN WYOMING

CITY           SKY/WX    TMP DP  RH WIND       PRES   REMARKS
JACKSON        MOCLDY     3   3 100 N8        30.00R WCI -10
CODY           CLOUDY     9   7  92 N9        30.22R WCI  -5
GREYBULL       CLOUDY    13   8  81 NW12      30.25R WCI  -1
6HR MIN TEMP:  12; 6HR MAX TEMP:  16;

WORLAND        LGT SNOW  12   8  84 NW6       30.24R FOG     WCI   3
6HR MIN TEMP:  10; 6HR MAX TEMP:  15; 6HR PCP:  0.01;

SHERIDAN       LGT SNOW   8   3  80 NW16      30.35R WCI -10
6HR MIN TEMP:   8; 6HR MAX TEMP:  15; 6HR PCP:  0.03;

BUFFALO        LGT SNOW   6   3  87 N30G36    30.22R VSB 1   WCI -18
6HR MIN TEMP:   6; 6HR MAX TEMP:  13; 6HR PCP: TRACE;

GILLETTE       LGT SNOW   7   3  84 N16       30.25R FOG     WCI -11
6HR MIN TEMP:   7; 6HR MAX TEMP:  18; 6HR PCP:  0.05;

HULETT           N/A    N/A N/A N/A MISG        N/A
NEWCASTLE      FAIR      12  10  92 SE3       30.20R

$$
WYZ014>020-022>026-101>103-291300-
CENTRAL WYOMING

CITY           SKY/WX    TMP DP  RH WIND       PRES   REMARKS
BIG PINEY      LGT SNOW  -3  -8  79 N9        29.98S WCI -19
6HR MIN TEMP: -15; 6HR MAX TEMP:  -3; 6HR PCP: TRACE;

PINEDALE       LGT SNOW N/A N/A N/A CALM      29.98R
DUBOIS         NOT AVBL
LANDER         LGT SNOW  11   7  84 NE7       30.12R VSB 3/4 WCI   0
6HR MIN TEMP:  11; 6HR MAX TEMP:  15; 6HR PCP:  0.10;

RIVERTON       LGT SNOW  10   6  84 NE9       30.13R FOG     WCI  -3
6HR MIN TEMP:  10; 6HR MAX TEMP:  17; 6HR PCP:  0.02;

CASPER         CLOUDY     9   4  80 NE8       30.14R WCI  -3
6HR MIN TEMP:   9; 6HR MAX TEMP:  18; 6HR PCP:  0.06;

DOUGLAS        LGT SNOW  14  10  84 N8        30.16R FOG     WCI   3
6HR MIN TEMP:  14; 6HR MAX TEMP:  19; 6HR PCP: TRACE;


$$
WYZ021-027>030-104>119-291300-
SOUTHERN WYOMING

CITY           SKY/WX    TMP DP  RH WIND       PRES   REMARKS
EVANSTON       CLOUDY    12   9  87 E7        29.92R WCI   1
6HR MIN TEMP:   9; 6HR MAX TEMP:  14; 6HR PCP: TRACE;

KEMMERER       LGT SNOW   5   1  85 NE14      29.94R WCI -12
FORT BRIDGER   LGT SNOW   6   4  92 CALM      29.97S
ROCK SPRINGS   FLURRIES   9   5  84 NE20      29.98R WCI -10
6HR MIN TEMP:   7; 6HR MAX TEMP:  11; 6HR PCP: TRACE;

DIXON          CLOUDY     1  -3  83 CALM      29.99S
RAWLINS        LGT SNOW  10   5  80 NE9       29.98S WCI  -3
6HR MIN TEMP:   5; 6HR MAX TEMP:  14; 6HR PCP: TRACE;

SARATOGA       LGT SNOW   3   0  85 W3        29.96R
LARAMIE        CLOUDY     5   3  91 N5        29.94R FOG     WCI  -4
6HR MIN TEMP:   5; 6HR MAX TEMP:  12; 6HR PCP: TRACE;

CHEYENNE       FLURRIES  14   9  80 N14G24    29.98S WCI  -1
6HR MIN TEMP:   8; 6HR MAX TEMP:  15; 6HR PCP: TRACE;

TORRINGTON     LGT SNOW  12   7  80 N10       30.15R WCI  -1
6HR MIN TEMP:  12; 6HR MAX TEMP:  21; 6HR PCP: TRACE;

PINE BLUFFS    LGT SNOW  10   9  92 N9        30.06R WCI  -2

$$


USA.gov is the U.S. government's official web portal to all federal, state and local government web resources and services.